INMARSAT 4-F1

Last updated on Sat Sep 05 2026 00:03:01 GMT+0000 (Coordinated Universal Time)

1 28628U 05009A 26247.27479146 .00000027 00000+0 00000+0 0 9998 2 28628 5.2775 42.8032 0002688 135.8169 81.8222 1.00272510 78466
UTC large
Height (km)
Speed (km/s)
/
Latitude / Longitude
Inclination (degrees)
Orbital Period (minutes)
Azimuth
Elevation
Range (km)
Doppler Factor

Next 0 passes for location: London (51.5072 / 0.1276)

No passes found over London.
INMARSAT 4-F1